EW1617 Weather Reports


Display with metric or nautical units.
time (UTC)temp
F
wind
direction
speed
MPH
gust
MPH
rain 1hr
in
rain 24hr
in
rain mn
in
humidity
%
barometer
mb
20260905192007 68 216 4.0 5.0 0.00 0.00 0.00 84 1017.3
20260905191507 68 216 4.0 6.0 0.00 0.00 0.00 86 1017.3
20260905191007 68 280 2.0 5.0 0.00 0.00 0.00 87 1017.3
20260905190507 67 315 5.0 5.0 0.00 0.00 0.00 88 1017.3
20260905190007 67 135 3.0 5.0 0.00 0.00 0.00 92 1017.3
20260905185506 66 117 3.0 5.0 0.00 0.00 0.00 92 1017.3
20260905185008 66 146 3.0 5.0 0.00 0.00 0.00 91 1017.3
20260905184507 65 225 1.0 3.0 0.00 0.00 0.00 93 1017.3
20260905184007 65 243 3.0 5.0 0.00 0.00 0.00 93 1017.6
20260905183506 65 126 3.0 5.0 0.00 0.00 0.00 93 1017.6
20260905183007 64 117 3.0 5.0 0.00 0.00 0.00 93 1017.6
20260905182506 65 18 2.0 5.0 0.00 0.00 0.00 94 1017.6
20260905182007 65 126 3.0 5.0 0.00 0.00 0.00 94 1017.6
20260905181507 65 0 0.0 0.0 0.00 0.00 0.00 94 1017.6
20260905181007 64 0 0.0 0.0 0.00 0.00 0.00 95 1017.6
20260905180507 64 0 0.0 1.0 0.00 0.00 0.00 96 1017.6
20260905180007 63 81 0.0 1.0 0.00 0.00 0.00 96 1017.6
20260905175507 63 180 0.0 1.0 0.00 0.00 0.00 96 1017.6
20260905175007 62 0 1.0 3.0 0.00 0.00 0.00 97 1017.6
20260905174507 62 79 2.0 5.0 0.00 0.00 0.00 97 1017.8
20260905174007 62 315 1.0 2.0 0.00 0.00 0.00 97 1017.7
20260905173507 61 261 1.0 2.0 0.00 0.00 0.00 98 1017.6
20260905173007 61 171 3.0 5.0 0.00 0.00 0.00 97 1017.7
20260905172507 60 135 1.0 2.0 0.00 0.00 0.00 98 1017.9
20260905172007 60 225 1.0 2.0 0.00 0.00 0.00 98 1017.9
20260905171508 60 226 2.0 5.0 0.00 0.00 0.00 99 1017.7
20260905171007 60 270 1.0 3.0 0.00 0.00 0.00 99 1017.7
20260905170507 60 365 0.0 0.0 0.00 0.00 0.00 99 1018.0
20260905170006 59 317 1.0 3.0 0.00 0.00 0.00 99 1018.0
20260905165507 59 307 1.0 4.0 0.00 0.00 0.00 99 1018.0
20260905165007 59 162 2.0 3.0 0.00 0.00 0.00 99 1018.0
20260905164507 58 63 1.0 3.0 0.00 0.00 0.00 99 1018.0
20260905164007 58 0 1.0 3.0 0.00 0.00 0.00 99 1018.0
20260905163507 58 0 0.0 1.0 0.00 0.00 0.00 99 1017.7
20260905163008 58 0 0.0 1.0 0.00 0.00 0.00 99 1018.0
20260905162506 58 0 0.0 0.0 0.00 0.00 0.00 99 1018.0
20260905162007 58 0 0.0 0.0 0.00 0.00 0.00 99 1018.0
20260905161507 58 0 0.0 0.0 0.00 0.00 0.00 99 1018.0
20260905161007 57 0 0.0 1.0 0.00 0.00 0.00 99 1018.0
20260905160506 57 0 1.0 4.0 0.00 0.00 0.00 99 1018.0
20260905160007 57 90 0.0 1.0 0.00 0.00 0.00 99 1018.0
20260905155508 57 90 0.0 0.0 0.00 0.00 0.00 99 1018.0
20260905155007 56 90 0.0 0.0 0.00 0.00 0.00 99 1018.0
20260905154508 56 90 0.0 0.0 0.00 0.00 0.00 99 1018.0
20260905154006 56 90 0.0 0.0 0.00 0.00 0.00 99 1018.0
20260905153507 56 90 0.0 0.0 0.00 0.00 0.00 99 1018.0
20260905153007 56 90 0.0 0.0 0.00 0.00 0.00 99 1018.0
20260905152506 56 90 0.0 1.0 0.00 0.00 0.00 99 1018.0
20260905152007 56 90 0.0 0.0 0.00 0.00 0.00 99 1018.0
20260905151507 56 90 0.0 0.0 0.00 0.00 0.00 99 1018.0
20260905151007 56 90 0.0 0.0 0.00 0.00 0.00 99 1017.8
20260905150507 56 90 0.0 0.0 0.00 0.00 0.00 99 1018.0
20260905150007 56 90 0.0 0.0 0.00 0.00 0.00 99 1018.0
20260905145508 56 90 0.0 0.0 0.00 0.00 0.00 99 1017.7
20260905145007 56 90 0.0 0.0 0.00 0.00 0.00 99 1017.6
20260905144507 56 90 0.0 0.0 0.00 0.00 0.00 99 1017.6
20260905144007 55 90 0.0 0.0 0.00 0.00 0.00 99 1017.6
20260905143506 55 90 0.0 0.0 0.00 0.00 0.00 99 1017.6
20260905143007 55 90 0.0 0.0 0.00 0.00 0.00 99 1017.6
20260905142507 55 90 0.0 0.0 0.00 0.00 0.00 99 1017.6
20260905142007 55 90 0.0 0.0 0.00 0.00 0.00 99 1017.6
20260905141507 55 90 0.0 0.0 0.00 0.00 0.00 99 1017.6
20260905141007 55 90 0.0 0.0 0.00 0.00 0.00 99 1017.6
20260905140507 55 90 0.0 0.0 0.00 0.00 0.00 99 1017.6
20260905140007 56 72 0.0 0.0 0.00 0.00 0.00 99 1017.6
20260905135507 56 81 0.0 0.0 0.00 0.00 0.00 99 1017.6
20260905135007 56 81 0.0 0.0 0.00 0.00 0.00 99 1017.6
20260905134507 56 90 0.0 0.0 0.00 0.00 0.00 99 1017.6
20260905134007 55 63 0.0 0.0 0.00 0.00 0.00 99 1017.6
20260905133507 55 63 0.0 0.0 0.00 0.00 0.00 99 1017.6
20260905133007 55 63 0.0 0.0 0.00 0.00 0.00 99 1017.6
20260905132507 55 54 0.0 0.0 0.00 0.00 0.00 99 1017.6
20260905132007 55 72 0.0 0.0 0.00 0.00 0.00 99 1017.5
20260905131507 55 72 0.0 0.0 0.00 0.00 0.00 99 1017.3
20260905131006 55 72 0.0 0.0 0.00 0.00 0.00 99 1017.3
20260905130507 55 72 0.0 0.0 0.00 0.00 0.00 99 1017.3
20260905130007 55 81 0.0 0.0 0.00 0.00 0.00 99 1017.3
20260905125507 55 81 0.0 0.0 0.00 0.00 0.00 99 1017.3
20260905125007 55 68 0.0 0.0 0.00 0.00 0.00 99 1017.3
20260905124507 55 81 0.0 0.0 0.00 0.00 0.00 99 1017.3
20260905124007 55 81 0.0 0.0 0.00 0.00 0.00 99 1017.3
20260905123507 56 79 0.0 0.0 0.00 0.00 0.00 99 1017.3
20260905123007 56 81 0.0 0.0 0.00 0.00 0.00 99 1017.3
20260905122507 56 90 0.0 0.0 0.00 0.00 0.00 99 1017.3
20260905122007 56 90 0.0 0.0 0.00 0.00 0.00 99 1017.1
20260905121507 56 81 0.0 0.0 0.00 0.00 0.00 99 1016.9
20260905121007 56 81 0.0 0.0 0.00 0.00 0.00 99 1016.9
20260905120507 56 79 0.0 0.0 0.00 0.00 0.00 99 1016.9
20260905120007 56 72 0.0 0.0 0.00 0.00 0.00 99 1017.1
20260905115507 56 72 0.0 0.0 0.00 0.00 0.00 99 1017.3
20260905115007 56 90 0.0 0.0 0.00 0.00 0.00 99 1017.3
20260905114507 56 81 0.0 0.0 0.00 0.00 0.00 99 1017.3
20260905114007 56 63 0.0 0.0 0.00 0.00 0.00 99 1017.1
20260905113507 56 81 0.0 0.0 0.00 0.00 0.00 99 1016.9
20260905113007 56 81 0.0 0.0 0.00 0.00 0.00 99 1016.9
20260905112507 56 63 0.0 0.0 0.00 0.00 0.00 99 1016.9
20260905112007 56 90 0.0 0.0 0.00 0.00 0.00 99 1016.9
20260905111507 56 90 0.0 0.0 0.00 0.00 0.00 99 1016.9
20260905111007 56 81 0.0 0.0 0.00 0.00 0.00 99 1016.9
20260905110506 56 72 0.0 0.0 0.00 0.00 0.00 99 1016.9
20260905110007 56 81 0.0 0.0 0.00 0.00 0.00 99 1016.9
20260905105507 56 54 0.0 0.0 0.00 0.00 0.00 99 1016.9
20260905105007 56 81 0.0 0.0 0.00 0.00 0.00 99 1016.9
20260905104507 56 72 0.0 0.0 0.00 0.00 0.00 99 1017.0
20260905104007 56 63 0.0 0.0 0.00 0.00 0.00 99 1017.3
20260905103507 56 72 0.0 0.0 0.00 0.00 0.00 99 1017.3
20260905103008 55 54 0.0 0.0 0.00 0.00 0.00 99 1017.3
20260905102508 55 79 0.0 0.0 0.00 0.00 0.00 99 1017.3
20260905102006 55 63 0.0 0.0 0.00 0.00 0.00 99 1017.3
20260905101507 55 72 0.0 0.0 0.00 0.00 0.00 99 1017.3
20260905101007 55 72 0.0 0.0 0.00 0.00 0.00 99 1017.1
20260905100507 55 63 0.0 0.0 0.00 0.00 0.00 99 1017.3
20260905100007 55 72 0.0 0.0 0.00 0.00 0.00 99 1016.9
20260905095508 55 72 0.0 0.0 0.00 0.00 0.00 99 1016.9
20260905095007 55 81 0.0 0.0 0.00 0.00 0.00 99 1016.9
20260905094507 55 63 0.0 0.0 0.00 0.00 0.00 99 1016.9
20260905094007 55 63 0.0 0.0 0.00 0.00 0.00 99 1016.9
20260905093507 55 72 0.0 0.0 0.00 0.00 0.00 99 1016.9
20260905093007 55 72 0.0 0.0 0.00 0.00 0.00 99 1016.9
20260905092507 55 81 0.0 0.0 0.00 0.00 0.00 99 1016.9
20260905092006 55 63 0.0 0.0 0.00 0.00 0.00 99 1016.9
20260905091507 55 81 0.0 0.0 0.00 0.00 0.00 99 1016.9
20260905091007 55 54 0.0 0.0 0.00 0.00 0.00 99 1016.9
20260905090507 55 63 0.0 0.0 0.00 0.00 0.00 99 1016.9
20260905090007 55 90 0.0 0.0 0.00 0.00 0.00 99 1016.9
20260905085506 55 90 0.0 0.0 0.00 0.00 0.00 99 1016.9
20260905085007 55 81 0.0 0.0 0.00 0.00 0.00 99 1016.9
20260905084507 55 54 0.0 0.0 0.00 0.00 0.00 99 1016.9
20260905084007 55 81 0.0 0.0 0.00 0.00 0.00 99 1016.8
20260905083507 55 81 0.0 0.0 0.00 0.00 0.00 99 1016.6
20260905083007 55 72 0.0 0.0 0.00 0.00 0.00 99 1016.6
20260905082507 55 72 0.0 0.0 0.00 0.00 0.00 99 1016.6
20260905082007 55 63 0.0 0.0 0.00 0.00 0.00 99 1016.6
20260905081508 55 81 0.0 0.0 0.00 0.00 0.00 99 1016.6
20260905081007 56 63 0.0 0.0 0.00 0.00 0.00 99 1016.6
20260905080507 56 72 0.0 0.0 0.00 0.00 0.00 99 1016.6
20260905080006 56 54 0.0 0.0 0.00 0.00 0.00 99 1016.6
20260905075507 56 81 0.0 0.0 0.00 0.00 0.00 99 1016.6
20260905075007 56 72 0.0 0.0 0.00 0.00 0.00 99 1016.6
20260905074507 56 63 0.0 0.0 0.00 0.00 0.00 99 1016.6
20260905074007 56 81 0.0 0.0 0.00 0.00 0.00 99 1016.6
20260905073507 56 72 0.0 0.0 0.00 0.00 0.00 99 1016.6
20260905073007 56 63 0.0 0.0 0.00 0.00 0.00 99 1016.6
20260905072507 55 81 0.0 0.0 0.00 0.00 0.00 99 1016.6
20260905072007 55 81 0.0 0.0 0.00 0.00 0.00 99 1016.6
20260905071507 55 72 0.0 0.0 0.00 0.00 0.00 99 1016.6
20260905071007 55 72 0.0 0.0 0.00 0.00 0.00 99 1016.6
20260905070507 55 72 0.0 0.0 0.00 0.00 0.00 99 1016.6
20260905070008 55 72 0.0 0.0 0.00 0.00 0.00 99 1016.3
20260905065506 55 63 0.0 0.0 0.00 0.06 0.00 99 1016.3
20260905065007 55 81 0.0 0.0 0.00 0.06 0.00 99 1016.3
20260905064507 55 63 0.0 0.0 0.00 0.06 0.00 99 1016.3
20260905064008 55 63 0.0 0.0 0.00 0.06 0.00 99 1016.3
20260905063507 55 45 0.0 0.0 0.00 0.06 0.00 99 1016.3
20260905063007 55 90 0.0 0.0 0.00 0.06 0.00 99 1016.3
20260905062507 55 63 0.0 0.0 0.00 0.06 0.00 99 1016.3
20260905062007 55 81 0.0 0.0 0.00 0.06 0.00 99 1016.1
20260905061507 55 72 0.0 0.0 0.00 0.06 0.00 99 1015.9
20260905061007 56 79 0.0 0.0 0.00 0.06 0.00 99 1015.9
20260905060506 56 81 0.0 0.0 0.00 0.06 0.00 99 1015.9
20260905060007 56 90 0.0 0.0 0.00 0.06 0.00 99 1015.9
20260905055507 56 72 0.0 0.0 0.00 0.06 0.00 99 1015.9
20260905055007 56 63 0.0 0.0 0.00 0.06 0.00 99 1015.9
20260905054507 56 72 0.0 0.0 0.00 0.06 0.00 99 1015.9
20260905054007 56 54 0.0 0.0 0.00 0.06 0.00 99 1015.9
20260905053506 56 81 0.0 0.0 0.00 0.06 0.00 99 1015.9
20260905053007 55 72 0.0 0.0 0.00 0.06 0.00 99 1015.9
20260905052507 55 90 0.0 0.0 0.00 0.06 0.00 99 1015.9
20260905052007 55 81 0.0 0.0 0.00 0.06 0.00 99 1015.9
20260905051507 55 63 0.0 0.0 0.00 0.06 0.00 99 1015.9
20260905051007 55 72 0.0 0.0 0.00 0.06 0.00 99 1015.9
20260905050507 55 90 0.0 0.0 0.00 0.06 0.00 99 1015.9
20260905050007 55 81 0.0 0.0 0.00 0.06 0.00 99 1015.9
20260905045507 55 72 0.0 0.0 0.00 0.06 0.00 99 1015.9
20260905045007 55 68 0.0 0.0 0.00 0.06 0.00 99 1015.9
20260905044507 55 63 0.0 0.0 0.00 0.06 0.00 99 1015.9
20260905044007 55 81 0.0 0.0 0.00 0.06 0.00 99 1015.9
20260905043507 54 81 0.0 0.0 0.00 0.06 0.00 99 1015.9
20260905043007 54 72 0.0 0.0 0.00 0.06 0.00 99 1015.9
20260905042507 55 72 0.0 0.0 0.00 0.06 0.00 99 1015.9
20260905042007 55 72 0.0 0.0 0.00 0.06 0.00 99 1015.9
20260905041507 55 72 0.0 0.0 0.00 0.06 0.00 99 1015.9
20260905041007 55 72 0.0 0.0 0.00 0.06 0.00 99 1015.9
20260905040506 55 72 0.0 0.0 0.00 0.06 0.00 99 1015.6
20260905040006 55 81 0.0 0.0 0.00 0.06 0.00 99 1015.6
20260905035506 55 72 0.0 0.0 0.00 0.06 0.00 99 1015.6
20260905035007 56 81 0.0 0.0 0.00 0.06 0.00 99 1015.6
20260905034507 56 68 0.0 0.0 0.00 0.06 0.00 99 1015.6
20260905034007 56 72 0.0 0.0 0.00 0.06 0.00 99 1015.4
20260905033506 56 63 0.0 0.0 0.00 0.06 0.00 99 1015.2
20260905033007 57 72 0.0 0.0 0.00 0.06 0.00 99 1015.2
20260905032507 57 90 0.0 0.0 0.00 0.06 0.00 99 1015.2
20260905032007 57 90 0.0 0.0 0.00 0.06 0.00 99 1015.2
20260905031507 58 54 0.0 0.0 0.00 0.06 0.00 99 1015.2
20260905031007 58 81 0.0 0.0 0.00 0.06 0.00 99 1015.2
20260905030506 58 90 0.0 0.0 0.00 0.06 0.00 99 1015.2
20260905030007 58 81 0.0 0.0 0.00 0.06 0.00 99 1015.2
20260905025507 59 68 0.0 0.0 0.00 0.06 0.00 99 1015.2
20260905025007 59 81 0.0 0.0 0.00 0.06 0.00 99 1014.9
20260905024507 59 81 0.0 0.0 0.00 0.06 0.00 99 1014.9
20260905024007 60 63 0.0 0.0 0.00 0.06 0.00 99 1014.9
20260905023507 60 72 0.0 0.0 0.00 0.06 0.00 99 1014.9
20260905023007 60 63 0.0 0.0 0.00 0.06 0.00 99 1015.0
20260905022507 60 63 0.0 0.0 0.00 0.06 0.00 99 1015.2
20260905022007 60 90 0.0 0.0 0.00 0.06 0.00 99 1015.2
20260905021508 60 63 0.0 0.0 0.00 0.06 0.00 99 1014.9
20260905021006 61 81 0.0 0.0 0.00 0.06 0.00 99 1014.9
20260905020507 61 63 0.0 0.0 0.00 0.06 0.00 99 1014.9
20260905020007 61 81 0.0 0.0 0.00 0.06 0.00 99 1014.9
20260905015507 61 72 0.0 0.0 0.00 0.06 0.00 99 1014.9
20260905015007 61 63 0.0 0.0 0.00 0.06 0.00 99 1014.9
20260905014507 61 72 0.0 0.0 0.00 0.06 0.00 99 1014.6
20260905014008 61 72 0.0 0.0 0.00 0.06 0.00 99 1014.6
20260905013507 61 72 0.0 0.0 0.00 0.06 0.00 99 1014.6
20260905013007 61 72 0.0 0.0 0.00 0.06 0.00 99 1014.6
20260905012507 61 72 0.0 0.0 0.00 0.06 0.00 99 1014.6
20260905012007 61 72 0.0 0.0 0.00 0.06 0.00 99 1014.6
20260905011507 61 54 0.0 0.0 0.00 0.06 0.00 99 1014.6
20260905011007 61 81 0.0 0.0 0.00 0.06 0.00 99 1014.6
20260905010507 61 54 0.0 0.0 0.00 0.06 0.00 99 1014.6
20260905010007 61 81 0.0 0.0 0.00 0.06 0.00 99 1014.4
20260905005507 61 81 0.0 0.0 0.00 0.06 0.00 99 1014.6
20260905005007 61 81 0.0 0.0 0.00 0.06 0.00 99 1014.6
20260905004506 61 81 0.0 0.0 0.00 0.06 0.00 99 1014.6
20260905004007 61 72 0.0 0.0 0.00 0.06 0.00 99 1014.5
20260905003507 61 54 0.0 0.0 0.00 0.06 0.00 99 1014.2
20260905003007 61 72 0.0 0.0 0.00 0.06 0.00 99 1014.2
20260905002507 61 90 1.0 4.0 0.00 0.06 0.00 99 1014.2
20260905002006 61 90 0.0 0.0 0.00 0.06 0.00 99 1014.2
20260905001507 61 90 0.0 0.0 0.00 0.06 0.00 99 1014.2
20260905001007 61 90 1.0 2.0 0.00 0.06 0.00 99 1014.2
20260905000507 61 90 0.0 1.0 0.00 0.06 0.00 99 1014.4
20260905000007 61 90 0.0 0.0 0.00 0.06 0.00 99 1014.2
20260904235507 60 90 0.0 0.0 0.00 0.06 0.00 99 1014.4
20260904235007 60 90 0.0 0.0 0.00 0.06 0.00 99 1014.6
20260904234507 60 90 0.0 0.0 0.00 0.06 0.00 99 1014.6
20260904234007 60 90 0.0 0.0 0.00 0.06 0.00 99 1014.6
20260904233507 60 90 0.0 1.0 0.00 0.06 0.00 99 1014.4
20260904233007 60 90 0.0 0.0 0.00 0.06 0.00 99 1014.2
20260904232507 59 90 0.0 1.0 0.00 0.06 0.00 99 1014.2
20260904232008 59 90 0.0 0.0 0.00 0.06 0.00 99 1014.2
20260904231507 58 90 0.0 0.0 0.00 0.06 0.00 99 1014.2
20260904231007 58 90 0.0 0.0 0.00 0.06 0.00 99 1014.2
20260904230507 58 90 0.0 0.0 0.00 0.06 0.00 99 1014.2
20260904230007 58 90 0.0 0.0 0.00 0.06 0.00 99 1014.2
20260904225507 58 90 0.0 0.0 0.00 0.06 0.00 99 1014.2
20260904225007 58 90 0.0 0.0 0.00 0.06 0.00 99 1014.2
20260904224508 58 90 0.0 0.0 0.00 0.06 0.00 99 1014.2
20260904224007 58 90 0.0 0.0 0.00 0.05 0.00 99 1014.2
20260904223507 58 90 0.0 0.0 0.00 0.05 0.00 99 1014.2
20260904223007 58 90 0.0 0.0 0.00 0.05 0.00 99 1014.2
20260904222507 58 90 0.0 0.0 0.00 0.05 0.00 98 1014.2
20260904222007 58 90 0.0 0.0 0.00 0.05 0.00 98 1014.2
20260904221507 58 90 0.0 0.0 0.00 0.05 0.00 98 1014.2
20260904221007 59 90 0.0 0.0 0.00 0.05 0.00 97 1014.2
20260904220507 59 90 0.0 1.0 0.00 0.04 0.00 97 1014.2
20260904220007 60 90 0.0 1.0 0.00 0.04 0.00 96 1014.2
20260904215507 60 108 0.0 2.0 0.00 0.04 0.00 97 1014.2
20260904215007 61 171 1.0 3.0 0.00 0.03 0.00 96 1014.2
20260904214507 62 158 6.0 7.0 0.00 0.03 0.00 95 1014.1
20260904214006 63 153 7.0 8.0 0.00 0.03 0.00 94 1013.9
20260904213507 63 144 6.0 8.0 0.00 0.02 0.00 93 1013.9
20260904213007 65 144 8.0 9.0 0.00 0.02 0.00 89 1013.6
20260904212507 66 144 7.0 8.0 0.00 0.02 0.00 80 1013.6
20260904212007 66 207 5.0 7.0 0.00 0.02 0.00 75 1013.3
20260904211507 67 144 3.0 6.0 0.00 0.02 0.00 69 1013.2
20260904211006 67 135 2.0 5.0 0.00 0.02 0.00 72 1013.2
20260904210507 67 243 1.0 6.0 0.00 0.02 0.00 72 1013.2
20260904210007 68 270 0.0 0.0 0.00 0.02 0.00 73 1013.2
20260904205507 68 270 0.0 2.0 0.00 0.02 0.00 72 1013.2
20260904205007 69 270 1.0 2.0 0.00 0.02 0.00 70 1013.2
20260904204507 69 270 1.0 5.0 0.00 0.02 0.00 68 1012.9
20260904204007 68 304 1.0 4.0 0.00 0.02 0.00 76 1012.9
20260904203507 67 279 2.0 4.0 0.00 0.02 0.00 87 1013.1
20260904203007 65 261 1.0 3.0 0.00 0.02 0.00 89 1013.2
20260904202507 65 315 1.0 5.0 0.00 0.02 0.00 86 1013.2
20260904202006 66 279 2.0 5.0 0.00 0.02 0.00 84 1013.2
20260904201507 66 317 1.0 5.0 0.00 0.02 0.00 85 1013.2
20260904201007 66 235 5.0 5.0 0.00 0.02 0.00 84 1013.2
20260904200507 65 217 3.0 5.0 0.00 0.02 0.00 88 1013.2
20260904200007 65 191 4.0 5.0 0.00 0.02 0.00 87 1013.2
20260904195507 65 162 4.0 6.0 0.00 0.02 0.00 86 1013.2
20260904195007 65 144 3.0 5.0 0.00 0.02 0.00 87 1013.2
20260904194506 65 207 2.0 4.0 0.00 0.02 0.00 90 1013.3
20260904194007 64 309 1.0 5.0 0.00 0.02 0.00 90 1013.6
20260904193507 65 225 3.0 6.0 0.00 0.02 0.00 89 1013.6
20260904193007 65 135 4.0 6.0 0.00 0.02 0.00 86 1013.5
20260904192507 66 199 3.0 5.0 0.00 0.02 0.00 83 1013.6